Hourly Data Report for March 18, 2022

KUGAARUK CLIMATE
NUNAVUT
Current Station Operator: ECCC - MSC

68°32'15.060" N
89°47'47.020" W
15.80 m
2303094
71407
NBB

Download Data

Hourly Data (March 2022)
Hourly Data Report for March 18, 2022
TIME
LST
Temp Definition
°C
Dew Point Definition
°C
Rel Hum Definition
%
Precip. Amount Definition
mm

Wind Dir Definition
10's deg

Wind Spd Definition
km/h
Visibility Definition
km
Stn Press Definition
kPa
Hmdx Definition


Wind Chill Definition


Weather Definition


00:00 -22.3 -25.0 78 0.0 23 24   100.01   -34 LegendNANA
01:00 -21.9 -24.6 79 0.0 22 24   100.05   -34 LegendNANA
02:00 -20.3 -22.9 80 0.0 23 20   100.09   -31 LegendNANA
03:00 -20.4 -23.0 80 0.0 26 19   100.15   -31 LegendNANA
04:00 -20.8 -23.5 79 0.0 25 22   100.16   -32 LegendNANA
05:00 -21.6 -24.4 78 0.0 24 27   100.17   -34 LegendNANA
06:00 -22.4 -25.2 78 0.0 25 32   100.20   -36 LegendNANA
07:00 -22.2 -25.2 77 0.0 22 32   100.25   -36 LegendNANA
08:00 -21.9 -25.0 76 0.0 22 31   100.28   -35 LegendNANA
09:00 -21.1 -24.0 77 0.0 24 32   100.30   -34 LegendNANA
10:00 -20.5 -23.4 78 0.0 25 32   100.33   -34 LegendNANA
11:00 -21.3 -24.7 74 0.0 26 23   100.42   -33 LegendNANA
12:00 -21.5 -24.6 76 0.0 25 18   100.52   -32 LegendNANA
13:00 -22.0 -25.6 73 0.0 26 26   100.58   -34 LegendNANA
14:00 -22.4 -26.1 72 0.0 26 26   100.65   -35 LegendNANA
15:00 -22.7 -26.1 74 0.0 26 34   100.68   -37 LegendNANA
16:00 -23.7 -26.9 74 0.0 25 24   100.79   -36 LegendNANA
17:00 -24.9 -28.1 75 0.0 24 12   100.88   -34 LegendNANA
18:00 -24.7 -27.8 75 0.0 25 15   100.96   -35 LegendNANA
19:00 -24.9 -28.2 74 0.0 22 19   100.99   -36 LegendNANA
20:00 -25.3 -28.4 75 0.0 24 32   101.01   -40 LegendNANA
21:00 -25.9 -29.2 74 0.0 23 31   101.07   -40 LegendNANA
22:00 -25.9 -29.0 75 0.0 24 36   101.08   -41 LegendNANA
23:00 -25.0 -28.1 76 0.0 24 40   101.10   -41 LegendNANA

Notes on Data Quality.

Legend

  • E = Estimated
  • M = Missing
  • NA = Not Available*
  • [empty] = Indicates an unobserved value
Date modified: